Location: Hlohovi?ky
(49.8934°N, 13.6739°E)
Time: 05:37:38
(UTC+00:00)

CZ-4C R/B - Pass Details

Date: 19 May 2025
Orbit: 425 x 537 km, 98.0° (Epoch: 22 June)

Event Time Altitude Azimuth Distance (km) Brightness Sun altitude
Rises 21:14:25 0° 19° (NNE) 2,611 7.5 -16.2°
Reaches altitude 10° 21:16:37 10° 26° (NNE) 1,702 6.3 -16.4°
Maximum altitude 21:20:08 43° 99° (E) 683 3.5 -16.6°
Enters shadow 21:20:51 38° 134° (SE) 751 3.5 -16.6°
